| time (UTC) | temp F | wind direction | speed knots | gust knots | rain 1hr in | rain 24hr in | rain mn in | humidity % | barometer mb |
| 20260504194537 | 64 | 211 | 7.0 | 19.1 | 0.00 | 0.00 | 0.00 | 53 | 1011.7 |
| 20260504193041 | 65 | 138 | 8.7 | 16.5 | 0.00 | 0.00 | 0.00 | 51 | 1011.7 |
| 20260504191541 | 65 | 157 | 7.8 | 15.6 | 0.00 | 0.00 | 0.00 | 51 | 1011.7 |
| 20260504190054 | 65 | 159 | 7.0 | 14.8 | 0.00 | 0.00 | 0.00 | 51 | 1011.9 |
| 20260504184538 | 65 | 164 | 6.1 | 16.5 | 0.00 | 0.00 | 0.00 | 50 | 1011.9 |
| 20260504183035 | 64 | 208 | 8.7 | 19.1 | 0.00 | 0.00 | 0.00 | 50 | 1012.1 |
| 20260504181543 | 64 | 122 | 7.8 | 19.1 | 0.00 | 0.00 | 0.00 | 50 | 1012.3 |
| 20260504180041 | 64 | 153 | 6.1 | 15.6 | 0.00 | 0.00 | 0.00 | 52 | 1012.4 |
| 20260504174540 | 64 | 217 | 7.0 | 15.6 | 0.00 | 0.00 | 0.00 | 55 | 1012.4 |
| 20260504173038 | 63 | 184 | 8.7 | 17.4 | 0.00 | 0.00 | 0.00 | 52 | 1012.4 |
| 20260504171538 | 63 | 247 | 7.8 | 15.6 | 0.00 | 0.00 | 0.00 | 50 | 1012.5 |
| 20260504081537 | 49 | 227 | 0.9 | 6.1 | 0.00 | 0.00 | 0.00 | 60 | 1013.9 |
| 20260504044539 | 44 | 0 | 0.0 | 3.5 | 0.00 | 0.00 | 0.00 | 70 | 1013.1 |
| 20260504043038 | 44 | 0 | 0.0 | 0.9 | 0.00 | 0.00 | 0.00 | 69 | 1013.2 |
| 20260504041538 | 44 | 0 | 0.0 | 1.7 | 0.00 | 0.00 | 0.00 | 68 | 1013.1 |
| 20260504040038 | 43 | 204 | 0.0 | 2.6 | 0.00 | 0.00 | 0.00 | 68 | 1013.1 |
| 20260504034542 | 43 | 254 | 0.0 | 2.6 | 0.00 | 0.00 | 0.00 | 71 | 1013.1 |
| 20260504033040 | 43 | 0 | 0.0 | 0.0 | 0.00 | 0.00 | 0.00 | 70 | 1013.1 |
| 20260504031539 | 44 | 0 | 0.0 | 0.9 | 0.00 | 0.00 | 0.00 | 70 | 1013.1 |
| 20260504030042 | 44 | 0 | 0.0 | 0.0 | 0.00 | 0.00 | 0.00 | 67 | 1013.1 |
| 20260504024540 | 44 | 0 | 0.0 | 0.0 | 0.00 | 0.00 | 0.00 | 66 | 1013.0 |
| 20260504023042 | 45 | 0 | 0.0 | 1.7 | 0.00 | 0.00 | 0.00 | 65 | 1013.1 |
| 20260504021540 | 46 | 0 | 0.0 | 0.0 | 0.00 | 0.00 | 0.00 | 62 | 1012.9 |
| 20260504020038 | 46 | 0 | 0.0 | 0.0 | 0.00 | 0.00 | 0.00 | 59 | 1012.9 |
| 20260504014552 | 47 | 0 | 0.0 | 0.0 | 0.00 | 0.00 | 0.00 | 57 | 1012.8 |
| 20260504013041 | 48 | 0 | 0.0 | 0.0 | 0.00 | 0.00 | 0.00 | 56 | 1012.7 |
| 20260504011536 | 49 | 0 | 0.0 | 0.9 | 0.00 | 0.00 | 0.00 | 52 | 1012.7 |
| 20260504010041 | 51 | 0 | 0.0 | 0.0 | 0.00 | 0.00 | 0.00 | 47 | 1012.5 |
| 20260504004540 | 52 | 0 | 0.0 | 0.0 | 0.00 | 0.00 | 0.00 | 40 | 1012.4 |
| 20260504003041 | 52 | 0 | 0.0 | 0.9 | 0.00 | 0.00 | 0.00 | 38 | 1012.2 |
| 20260504001546 | 53 | 254 | 0.0 | 0.9 | 0.00 | 0.00 | 0.00 | 38 | 1011.9 |
| 20260504000043 | 54 | 0 | 0.0 | 0.0 | 0.00 | 0.00 | 0.00 | 35 | 1011.8 |
| 20260503234541 | 55 | 254 | 0.0 | 0.9 | 0.00 | 0.00 | 0.00 | 34 | 1011.6 |
| 20260503233045 | 56 | 267 | 0.0 | 2.6 | 0.00 | 0.00 | 0.00 | 32 | 1011.3 |
| 20260503231543 | 57 | 267 | 0.0 | 2.6 | 0.00 | 0.00 | 0.00 | 32 | 1011.1 |
| 20260503230037 | 57 | 282 | 0.9 | 6.1 | 0.00 | 0.00 | 0.00 | 30 | 1011.1 |
| 20260503224540 | 57 | 286 | 2.6 | 7.0 | 0.00 | 0.00 | 0.00 | 30 | 1011.1 |
| 20260503223036 | 58 | 274 | 2.6 | 7.8 | 0.00 | 0.00 | 0.00 | 30 | 1011.0 |
| 20260503221549 | 58 | 0 | 1.7 | 6.1 | 0.00 | 0.00 | 0.00 | 31 | 1010.8 |
| 20260503220040 | 58 | 288 | 0.9 | 5.2 | 0.00 | 0.00 | 0.00 | 32 | 1010.9 |
| 20260503214537 | 57 | 232 | 2.6 | 7.8 | 0.00 | 0.00 | 0.00 | 31 | 1010.8 |
| 20260503213037 | 57 | 294 | 2.6 | 9.6 | 0.00 | 0.00 | 0.00 | 30 | 1010.6 |
| 20260503211534 | 57 | 278 | 1.7 | 8.7 | 0.00 | 0.00 | 0.00 | 32 | 1010.6 |
| 20260503210050 | 57 | 303 | 2.6 | 8.7 | 0.00 | 0.00 | 0.00 | 32 | 1010.6 |
| 20260503204550 | 58 | 265 | 3.5 | 10.4 | 0.00 | 0.00 | 0.00 | 32 | 1010.4 |
| 20260503203038 | 57 | 228 | 4.3 | 13.0 | 0.00 | 0.00 | 0.00 | 33 | 1010.6 |
| 20260503201538 | 57 | 267 | 5.2 | 13.0 | 0.00 | 0.00 | 0.00 | 33 | 1010.8 |
| 20260503200044 | 57 | 222 | 1.7 | 10.4 | 0.00 | 0.00 | 0.00 | 36 | 1010.8 |